Vertical_Velocity
0 6 -4 -9 -4 -0 -1 0 -0 1 1 3 -2 -1 -2 -0 1 1 0 0 0 1 1 1 1 1 1 1 -0 -2 -1 -1 0 0 -1 -1 -1 -1 -0 -0 -0 -0 0 0
5 -3 -5 -1 1 -0 1 -0 -0 2 0 4 0 -4 -1 0 -1 0 1 1 0 2 0 1 0 0 -0 1 1 -0 -0 -1 1 0 1 -0 0 -1 -0 0 -0 -1 -1 -1
-2 -0 0 -1 2 2 0 -1 -1 -0 1 1 2 -1 3 2 0 -0 -0 -1 0 2 0 0 -2 -0 2 0 -1 -0 -0 1 0 0 -0 -1 -0 -0 -0 -1 -0 -0 -0 -0
-2 1 -1 1 -0 -1 2 -1 -1 -0 2 0 3 -4 2 1 2 0 0 -0 0 0 1 3 1 -1 -0 2 1 3 2 1 1 0 0 1 3 2 2 2 1 0 -0 -1
-4 1 1 1 -1 0 0 -1 -1 -1 -0 1 2 1 1 1 3 1 0 -0 -0 -0 1 1 1 3 3 1 2 4 3 1 -0 0 0 -0 0 -0 -0 0 0 0 0 1
1 -1 0 0 1 0 -1 -1 -1 -0 -1 2 -1 3 -3 0 -1 2 1 0 0 1 2 3 2 1 1 1 1 1 1 2 0 0 1 0 1 1 0 -0 0 1 0 -0
2 1 1 -0 -2 2 2 2 1 3 2 -2 0 3 -3 1 1 -1 0 1 1 2 2 3 2 2 1 1 1 1 1 -0 1 0 -1 0 1 0 0 0 0 0 0 -0
-2 7 1 1 -0 -6 -2 -1 -3 -4 -1 0 1 -3 -0 0 -0 0 0 0 1 1 2 2 1 1 1 0 0 0 0 0 -0 0 2 1 1 1 0 -1 0 0 0 0
-0 3 1 -0 0 1 2 2 2 -4 1 2 -3 1 6 2 3 2 1 1 2 2 2 2 2 1 1 0 0 1 0 0 0 1 0 1 1 1 1 2 2 1 1 0
-0 -1 1 2 1 1 2 1 2 -0 0 1 1 -1 -1 3 2 2 3 1 1 2 2 2 1 1 1 1 1 0 0 -1 -0 -0 0 0 1 1 0 -1 -0 2 2 -0
-1 -4 5 2 1 -4 3 1 1 -1 2 -1 -0 -2 1 -3 -3 -2 1 1 0 1 1 2 2 2 1 1 1 1 1 -0 -0 0 0 0 1 1 0 -0 0 -0 -0 1
-1 -2 -1 -0 2 1 1 -0 -2 1 1 1 2 -1 0 -0 -1 -3 1 -0 0 1 1 1 1 2 1 1 1 0 0 0 1 0 1 1 1 0 -1 -1 -0 -0 1 -1
-5 -0 0 3 2 2 1 0 -0 -0 -0 -2 -2 -1 0 1 2 2 -3 1 1 1 1 1 1 0 0 0 -0 -0 0 1 0 -1 -0 0 0 1 2 2 2 1 0 -0
0 -0 -2 -6 -1 -3 2 1 0 -1 0 -1 -4 1 2 2 -0 3 3 2 1 1 0 1 0 0 -0 -0 0 0 -1 -1 -1 -1 -0 0 0 0 -1 -1 -0 -0 -1 0
1 -1 0 1 0 -0 -0 -1 0 0 -2 -1 -1 -2 -4 -5 -4 -4 -1 1 0 1 1 1 1 1 0 0 -1 -0 -1 -1 -1 -1 -1 -0 -0 -0 -1 -1 -1 -4 -2 0
1 1 -1 1 0 -0 0 -0 0 -0 -0 0 -0 -3 0 1 2 1 -0 -0 1 1 1 1 1 1 1 0 -0 -0 -1 -1 -1 -1 -1 -1 -1 -1 -1 -2 -2 0 -1 -1
-0 -2 0 0 -0 0 1 -8 -2 -1 0 -7 -3 -7 0 2 1 -1 0 -1 -1 1 1 -0 -1 -1 -1 -1 -1 -1 -1 -1 -1 -1 -1 -1 -2 -1 -1 -1 -1 -0 -2 -4
-1 -1 -0 1 1 1 -3 0 -0 -2 -1 0 0 0 -1 -1 3 -1 2 -1 0 0 -0 0 1 2 1 1 0 1 1 0 0 -0 -1 -2 -1 -1 -1 -0 -0 0 1 1
0 -1 -1 -1 -1 -2 2 -0 -3 -5 -5 -4 -2 2 2 1 -2 1 1 1 -0 -0 0 1 0 0 0 -0 -0 0 0 -0 -0 -1 -1 -2 -2 -2 -2 -1 -1 -2 -3 -0
-1 -1 -0 1 1 -2 2 0 -0 0 -3 -1 -4 -1 -3 2 2 2 -1 1 0 0 0 -0 -0 -1 -2 -2 -2 -2 -2 -2 -1 -2 -1 -0 -0 -1 -2 -2 -2 -2 -3 -4
1 1 -1 0 -1 -6 0 -0 -1 5 -1 -0 -1 -3 -2 -1 3 -1 0 1 1 1 -0 -0 -0 -0 -0 -1 -1 -2 -1 -2 -1 -2 -2 -2 -2 -4 -2 -2 -1 -1 -1 -1
-6 -5 -1 1 2 -5 -1 3 4 4 2 -0 1 1 -1 -1 0 1 1 1 -0 0 0 -0 0 0 -0 -0 0 -1 -0 -1 -1 -1 -1 -1 -1 -2 -2 -2 -2 -1 -0 -1
0 -2 -3 -3 -3 2 1 1 0 0 -1 0 -1 -0 -1 -1 1 1 0 0 -0 0 0 -0 -0 -0 -1 -1 -0 1 -0 -1 -1 -2 -2 -3 -2 -2 -1 -2 -1 -2 -1 -1
1 -0 1 2 4 1 1 0 0 1 0 -1 0 -0 0 -2 0 -1 -0 -0 -0 -0 -0 -0 -1 -1 -1 -0 -1 -1 -2 -2 -2 -2 -2 -1 -0 0 0 0 1 -0 -1 -1
2 1 -1 -1 1 0 0 1 1 1 1 0 1 1 1 1 0 0 -0 0 0 0 1 1 0 -0 -0 -1 -1 -1 -2 -2 -1 0 -1 -1 -1 -0 0 0 1 0 -0 -0
1 2 1 2 2 1 2 2 2 1 0 1 1 -1 -0 1 0 0 1 2 1 1 -0 -1 -1 -1 -2 -2 -2 -2 -2 -1 -0 -0 -2 -1 -2 -1 -1 -2 -2 -1 -1 -1
Height
1501 1499 1496 1491 1493 1496 1495 1498 1498 1505 1510 1508 1504 1502 1502 1507 1509 1509 1510 1513 1516 1518 1522 1525 1528 1533 1537 1540 1544 1547 1550 1552 1554 1556 1558 1560 1561 1563 1564 1565 1567 1568 1570 1571
1499 1494 1490 1494 1498 1498 1499 1497 1499 1507 1510 1509 1507 1500 1499 1505 1506 1507 1508 1511 1513 1516 1518 1521 1524 1528 1532 1537 1541 1545 1548 1551 1553 1556 1557 1559 1561 1562 1563 1565 1566 1568 1570 1572
1488 1489 1492 1494 1499 1499 1498 1495 1499 1497 1509 1511 1508 1494 1497 1506 1507 1508 1508 1509 1509 1511 1513 1517 1521 1525 1529 1533 1537 1541 1545 1549 1552 1554 1556 1558 1560 1562 1563 1564 1566 1568 1569 1571
1488 1491 1492 1494 1493 1494 1499 1497 1499 1504 1503 1503 1511 1497 1487 1498 1504 1507 1507 1508 1506 1506 1509 1513 1517 1521 1525 1530 1535 1539 1543 1547 1550 1553 1555 1557 1560 1561 1562 1564 1565 1567 1568 1570
1485 1489 1490 1492 1491 1494 1494 1501 1502 1506 1507 1507 1508 1509 1480 1498 1500 1503 1507 1506 1504 1502 1506 1509 1513 1518 1523 1528 1532 1537 1540 1544 1548 1551 1554 1556 1558 1559 1561 1562 1564 1565 1567 1569
1489 1493 1493 1492 1499 1499 1503 1503 1507 1509 1508 1510 1504 1500 1476 1487 1492 1501 1506 1505 1503 1503 1505 1508 1511 1516 1520 1525 1530 1534 1538 1542 1545 1549 1552 1554 1556 1558 1559 1560 1562 1563 1565 1567
1490 1492 1496 1496 1497 1503 1501 1496 1503 1507 1511 1495 1516 1510 1474 1497 1502 1504 1505 1505 1504 1504 1506 1507 1510 1514 1518 1523 1527 1532 1536 1539 1543 1546 1550 1553 1555 1556 1557 1559 1560 1562 1563 1565
1477 1487 1491 1495 1492 1490 1494 1494 1486 1492 1494 1486 1517 1497 1479 1502 1505 1506 1506 1505 1505 1506 1507 1508 1511 1514 1517 1522 1526 1530 1534 1537 1541 1544 1548 1550 1552 1553 1555 1556 1558 1559 1560 1562
1474 1479 1494 1494 1495 1495 1493 1494 1497 1508 1523 1499 1481 1488 1501 1503 1504 1505 1506 1507 1507 1508 1509 1510 1512 1514 1518 1521 1525 1528 1531 1535 1538 1541 1544 1547 1549 1550 1552 1554 1555 1556 1557 1558
1466 1480 1494 1496 1496 1496 1493 1495 1493 1500 1494 1486 1479 1486 1460 1496 1497 1503 1505 1507 1509 1510 1510 1511 1513 1515 1518 1521 1524 1527 1530 1533 1536 1539 1541 1544 1546 1547 1549 1550 1552 1553 1554 1555
1469 1469 1495 1495 1490 1487 1494 1493 1496 1490 1491 1471 1470 1466 1483 1482 1490 1497 1503 1507 1509 1511 1511 1512 1514 1516 1519 1521 1524 1526 1528 1531 1533 1535 1538 1540 1542 1543 1545 1546 1548 1550 1551 1552
1468 1470 1480 1481 1497 1498 1493 1484 1483 1470 1490 1501 1489 1469 1488 1490 1491 1497 1503 1507 1509 1510 1511 1513 1515 1517 1519 1521 1523 1525 1527 1529 1531 1533 1535 1537 1538 1540 1541 1543 1544 1545 1547 1548
1466 1468 1474 1482 1494 1496 1491 1489 1491 1492 1487 1487 1474 1468 1490 1492 1494 1498 1501 1505 1508 1509 1511 1512 1515 1517 1519 1521 1522 1524 1526 1527 1529 1531 1533 1534 1535 1536 1537 1538 1539 1541 1542 1543
1461 1462 1456 1449 1456 1469 1482 1483 1489 1482 1476 1474 1474 1477 1488 1490 1492 1496 1500 1503 1505 1508 1510 1512 1514 1516 1518 1520 1522 1523 1525 1526 1528 1529 1530 1531 1532 1533 1533 1534 1536 1537 1538 1538
1461 1460 1462 1468 1472 1474 1474 1476 1483 1479 1471 1463 1465 1471 1472 1479 1484 1490 1495 1499 1503 1506 1508 1511 1513 1515 1517 1518 1520 1522 1523 1524 1526 1527 1528 1528 1529 1530 1530 1531 1531 1532 1533 1534
1463 1464 1470 1474 1478 1484 1478 1480 1478 1480 1484 1485 1492 1480 1475 1480 1484 1490 1494 1497 1501 1504 1506 1509 1511 1514 1516 1517 1519 1520 1522 1523 1524 1524 1524 1525 1525 1525 1526 1526 1526 1527 1527 1528
1464 1468 1466 1457 1482 1484 1472 1467 1470 1468 1470 1471 1476 1463 1473 1481 1482 1486 1491 1495 1498 1501 1504 1507 1510 1512 1514 1515 1517 1518 1519 1520 1520 1521 1521 1521 1521 1521 1521 1521 1521 1521 1521 1521
1463 1466 1470 1471 1483 1462 1449 1466 1464 1459 1465 1467 1469 1470 1471 1475 1481 1486 1490 1493 1496 1499 1502 1506 1508 1510 1512 1513 1514 1515 1516 1516 1516 1516 1516 1516 1516 1515 1515 1515 1515 1515 1515 1515
1462 1461 1476 1467 1462 1449 1453 1463 1462 1458 1446 1456 1463 1471 1475 1479 1483 1489 1490 1492 1495 1499 1502 1504 1507 1508 1509 1510 1511 1512 1513 1513 1513 1512 1512 1511 1511 1510 1509 1508 1508 1507 1507 1508
1464 1462 1457 1475 1455 1440 1444 1453 1455 1456 1442 1452 1457 1465 1470 1476 1475 1482 1487 1491 1494 1498 1501 1503 1504 1505 1506 1508 1509 1509 1509 1509 1508 1507 1507 1507 1506 1504 1503 1502 1501 1501 1500 1500
1461 1462 1457 1461 1454 1444 1447 1453 1455 1444 1444 1455 1458 1462 1468 1471 1475 1477 1484 1489 1493 1496 1499 1500 1502 1503 1503 1504 1504 1504 1504 1504 1503 1502 1502 1502 1501 1499 1498 1497 1495 1495 1494 1494
1451 1454 1457 1467 1467 1446 1450 1455 1449 1453 1456 1457 1461 1465 1469 1471 1474 1479 1484 1488 1492 1494 1496 1498 1499 1499 1499 1500 1500 1499 1498 1498 1497 1496 1495 1495 1494 1493 1492 1491 1490 1489 1488 1487
1449 1443 1441 1443 1439 1451 1453 1454 1455 1455 1456 1460 1462 1465 1469 1472 1476 1481 1484 1487 1490 1492 1494 1495 1496 1496 1496 1495 1495 1494 1493 1493 1492 1491 1490 1489 1488 1487 1486 1485 1483 1482 1481 1481
1449 1450 1444 1446 1450 1452 1454 1455 1456 1457 1459 1461 1464 1468 1471 1473 1478 1481 1484 1486 1488 1490 1491 1492 1492 1492 1492 1491 1491 1490 1489 1489 1487 1486 1485 1484 1482 1481 1479 1478 1477 1475 1475 1474
1445 1448 1446 1447 1453 1455 1455 1457 1458 1459 1461 1463 1466 1469 1472 1475 1477 1480 1483 1485 1486 1487 1487 1488 1488 1488 1488 1488 1487 1486 1486 1485 1484 1482 1480 1478 1476 1475 1473 1472 1470 1469 1468 1469
1450 1447 1441 1435 1452 1452 1456 1458 1460 1461 1463 1466 1468 1471 1473 1476 1478 1480 1481 1482 1484 1484 1485 1485 1485 1485 1485 1485 1484 1483 1482 1480 1479 1477 1475 1473 1471 1469 1467 1465 1463 1463 1462 1461